User: anonymous   Login
Location: D�derode
(51.8092°N, 10.1065°E)
Time: 02:30:21
(UTC+00:00)
Language:

CZ-4B R/B - Orbit

View from above orbital plane
View from above orbital plane
View from above satellite
View from above satellite

Ground track
Ground track

The orbit data is extracted from the following two-line orbital elements,

1 29093U 06015B   21059.46003433  .00004497  00000-0  83418-4 0  9997
2 29093  97.6320 245.6577 0052414 113.3419 247.3357 15.48012774826068
Epoch (UTC): 28 February 2021 11:02:26
Eccentricity: 0.0052414
inclination: 97.6320°
perigee height: 387 km
apogee height: 458 km
right ascension of ascending node: 245.6577°
argument of perigee: 113.3419°
revolutions per day: 15.48012774
mean anomaly at epoch: 247.3357°
orbit number at epoch: 82606

The dashed part of the orbit path shows where the satellite is in the earth's shadow,  

DLR